[[{"header":{"parameterUnit":"m.s-1","parameterCategory":1,"la1":30.2991,"la2":30.254,"lo1":-89.0895,"lo2":-89.0444,"dy":0.0017,"dx":0.0017,"nx":28,"ny":28,"refTime":"2023-11-01T09:00:00:Z","depth":0,"parameterNumber":2,"parameterNumberName":"U-component_of_WINDS"},"data":[0,0,0,0,0,0,0,0,0,0,0,0,0,0,0,0,0,0,0,0,0,0,0,0,0,0,0,0,0,0,0,0,0,0,0,0,0,0,0,0,0,0,0,0,0,0,0,0,0,0,0,0,0,0,0,0,0,0,-3.8692,-3.8693,0,-3.875,-3.8751,-3.8751,-3.8648,-3.8644,-3.8641,-3.8637,-3.8696,-3.8701,-3.8705,0,0,0,0,0,0,0,0,0,0,0,0,0,-3.8492,-3.8496,-3.8692,-3.8693,-3.8694,-3.875,-3.8751,-3.8751,-3.8648,-3.8644,-3.864,-3.8636,-3.8694,-3.87,-3.8706,0,0,0,0,0,0,0,0,0,0,0,0,0,-3.8567,-3.8497,-3.8692,-3.8649,-3.8646,-3.875,-3.8751,-3.8752,-3.8649,-3.8644,-3.8639,-3.8634,-3.8692,-3.8699,-3.8706,-3.8855,0,0,-3.8728,-3.8732,0,0,0,0,0,0,0,0,-3.8563,-3.8574,-3.8655,-3.8652,-3.8649,-3.8686,-3.8701,-3.8786,-3.865,-3.8648,-3.8637,-3.8631,-3.8697,-3.8703,-3.8726,-3.8858,-3.886,-3.8729,-3.8733,-3.8737,-3.8739,0,0,0,0,0,0,0,-3.8558,-3.8571,-3.8715,-3.8656,-3.8652,-3.8626,-3.8631,-3.8717,-3.8701,-3.8648,-3.864,-3.8649,-3.8694,-3.8719,-3.8726,-3.8861,-3.8729,-3.8735,-3.874,-3.8743,-3.9117,-3.9122,0,0,0,0,0,0,-3.8558,-3.8568,-3.8713,-3.8717,-3.8592,-3.8634,-3.864,-3.8679,-3.87,-3.8698,-3.8653,-3.8643,-3.8709,-3.8718,-3.8728,-3.8902,-3.8736,-3.8743,-3.8747,-3.9111,-3.9118,-3.9124,0,0,0,0,0,0,-3.8554,-3.8572,-3.8711,-3.864,-3.8656,-3.8643,-3.8689,-3.8683,-3.8708,-3.8704,-3.87,-3.8681,-3.8705,-3.8718,-3.8824,-3.8903,-3.8746,-3.8753,-3.9105,-3.9113,-3.9121,-3.9253,0,0,0,0,0,0,-3.8549,-3.8571,-3.8628,-3.8642,-3.866,-3.8807,-3.8693,-3.8688,-3.8721,-3.8709,-3.8729,-3.8728,-3.8702,-3.8814,-3.8831,-3.891,-3.8759,-3.9098,-3.9109,-3.9119,-3.9242,-3.9265,-3.9285,0,0,0,0,0,-3.8542,-3.8663,-3.8631,-3.8649,-3.8731,-3.8812,-3.8822,-3.879,-3.8727,-3.8784,-3.8781,-3.8727,-3.8892,-3.8826,-3.8844,-3.8926,-3.9092,-3.9105,-3.9118,-3.9232,-3.926,-3.9285,0,0,0,0,0,0,-3.8658,-3.8664,-3.8629,-3.8758,-3.8785,-3.8794,-3.8864,-3.8822,-3.8867,-3.8854,-3.8813,-3.8818,-3.8933,-3.894,-3.8866,-3.9071,-3.8981,-3.8998,-3.9062,-3.9089,-3.911,-3.9106,-3.8765,0,0,0,0,0,-3.8699,-3.8764,-3.8766,-3.8879,-3.8895,-3.8878,-3.8912,-3.8885,-3.8911,-3.8922,-3.8927,-3.8954,-3.9012,-3.9051,-3.9104,-3.9242,-3.9245,-3.9308,-3.933,-3.9347,-3.9363,-3.9436,-3.9463,-3.9166,-3.9166,-3.9166,0,0,-3.8783,-3.8795,-3.8838,-3.8903,-3.8921,-3.8989,-3.8888,-3.8964,-3.9014,-3.8933,-3.9034,-3.9039,-3.9066,-3.9189,-3.9244,-3.9199,-3.9445,-3.9364,-3.9378,-3.9383,-3.9451,-3.948,-3.9505,-3.9174,-3.9173,-3.9172,0,0,-3.8972,-3.8988,-3.9084,-3.9104,-3.9132,-3.9119,-3.9143,-3.9158,-3.9158,-3.9258,-3.9198,-3.9257,-3.9358,-3.938,-3.9404,-3.9601,-3.9552,-3.9619,-3.9732,-3.9804,-3.9827,-3.9848,-3.9918,-3.9943,-3.9634,-3.9635,-3.9635,0,-3.9074,-3.9174,-3.9139,-3.9219,-3.9249,-3.9179,-3.9276,-3.9296,-3.9341,-3.9363,-3.9312,-3.9436,-3.945,-3.9576,-3.9624,-3.9647,-3.9671,-3.9616,-3.9827,-3.9847,-3.9866,-3.9932,-3.9958,-3.9642,-3.9641,-3.9641,-3.964,0,-3.9297,-3.9368,-3.9442,-3.9487,-3.9525,-3.9613,-3.959,-3.9633,-3.9603,-3.9596,-3.9699,-3.9713,-3.9767,-3.9795,-3.9767,-3.9918,-3.9889,-3.9834,-3.9743,-3.9903,-3.9964,-3.9989,-3.9654,-3.9651,-3.9648,-3.9647,0,0,-3.9562,-3.9584,-3.9612,-3.9631,-3.9656,-3.971,-3.9795,-3.9848,-3.9885,-3.9918,-3.9988,-4.0074,-4.0023,-4.005,-4.0024,-4.0087,-4.0241,-4.0023,-4.0023,-4.0063,-4.0408,-4.0449,-4.0479,-4.0209,-4.0214,-4.0218,-4.0405,0,-3.9749,-3.9895,-3.9865,-4.0008,-4.0072,-4.0006,-4.008,-4.0104,-4.0099,-4.0153,-4.0148,-4.0209,-4.0137,-4.0153,-4.0213,-4.021,-4.031,-4.0196,-4.0273,-4.0277,-4.0268,-4.0511,-4.0556,-4.0732,-4.0429,-4.0433,-4.0436,0,-3.9987,-4.0028,-4.0178,-4.0192,-4.0218,-4.0285,-4.0331,-4.0383,-4.0408,-4.04,-4.0431,-4.0392,-4.0476,-4.0385,-4.0499,-4.0423,-4.0452,-4.0456,-4.0462,-4.0468,-4.0366,-4.0523,-4.0787,-4.0814,-4.0473,-4.047,-4.0468,0,-4.0164,-4.0257,-4.0358,-4.0376,-4.0396,-4.0444,-4.0455,-4.0474,-4.0508,-4.0548,-4.0569,-4.0619,-4.0646,-4.0685,-4.066,-4.0596,-4.0779,-4.0685,-4.0774,-4.0775,-4.0815,-4.0813,-4.1088,-4.0836,-4.0835,-4.0835,-4.0834,0,-4.0376,-4.047,-4.0438,-4.05,-4.0603,-4.0567,-4.067,-4.0673,-4.0691,-4.0752,-4.0698,-4.0757,-4.0721,-4.0777,-4.0758,-4.0856,-4.0868,-4.0864,-4.0858,-4.0869,-4.087,-4.0888,-4.0875,-4.0842,-4.084,-4.0839,-4.0838,0,-4.0591,-4.0573,-4.0679,-4.0689,-4.0693,-4.0769,-4.0777,-4.0835,-4.0826,-4.0904,-4.0921,-4.0907,-4.097,-4.0949,-4.1017,-4.1004,-4.1128,-4.1106,-4.1119,-4.1114,-4.1204,-4.1196,-4.15,-4.1538,-4.1261,-4.1264,-4.1266,0,-4.0727,-4.0798,-4.0815,-4.0852,-4.0866,-4.0927,-4.0961,-4.0928,-4.0965,-4.0999,-4.1053,-4.1111,-4.1155,-4.1259,-4.1255,-4.1306,-4.1285,-4.1388,-4.1292,-4.1301,-4.1286,-4.1282,-4.1289,-4.1407,-4.141,-4.1413,-4.1415,0,-4.0971,-4.0959,-4.1009,-4.1058,-4.1099,-4.1135,-4.1167,-4.12,-4.1169,-4.1214,-4.1277,-4.1312,-4.138,-4.1439,-4.1485,-4.1495,-4.145,-4.1445,-4.1468,-4.148,-4.1485,-4.1483,-4.1171,-4.1438,-4.1436,-4.1434,-4.1433,-4.1432,-4.1151,-4.121,-4.1231,-4.129,-4.1309,-4.134,-4.1394,-4.1392,-4.1444,-4.1498,-4.1475,-4.1548,-4.157,-4.1628,-4.1644,-4.1701,-4.1661,-4.1695,-4.1703,-4.1712,-4.1723,-4.1476,-4.1709,-4.1708,-4.1708,-4.1707,-4.1707,0,-4.1392,-4.1402,-4.1455,-4.1501,-4.1546,-4.15,-4.1532,-4.1573,-4.1638,-4.1662,-4.1707,-4.178,-4.1836,-4.1836,-4.1888,-4.1933,-4.1914,-4.1948,-4.1944,-4.1947,-4.1756,-4.1731,-4.1963,-4.1963,-4.1963,-4.1963,-4.1963,-4.1963,-4.1522,-4.162,-4.161,-4.1717,-4.1726,-4.1797,-4.1819,-4.1847,-4.1866,-4.195,-4.1996,-4.1995,-4.201,-4.2063,-4.2112,-4.211,-4.2132,-4.2174,-4.2165,-4.1986,-4.1961,-4.1937,-4.1912,-4.2179,-4.2179,-4.2351,-4.2353,-4.2354]},{"header":{"parameterUnit":"m.s-1","parameterCategory":1,"la1":30.2991,"la2":30.254,"lo1":-89.0895,"lo2":-89.0444,"dy":0.0017,"dx":0.0017,"nx":28,"ny":28,"refTime":"2023-11-01T09:00:00:Z","depth":0,"parameterNumber":3,"parameterNumberName":"V-component_of_WINDS"},"data":[0,0,0,0,0,0,0,0,0,0,0,0,0,0,0,0,0,0,0,0,0,0,0,0,0,0,0,0,0,0,0,0,0,0,0,0,0,0,0,0,0,0,0,0,0,0,0,0,0,0,0,0,0,0,0,0,0,0,-1.9519,-1.952,0,-1.9601,-1.9602,-1.9603,-1.9615,-1.9614,-1.9614,-1.9613,-1.9694,-1.9697,-1.97,0,0,0,0,0,0,0,0,0,0,0,0,0,-1.937,-1.9373,-1.9519,-1.952,-1.9521,-1.9601,-1.9602,-1.9603,-1.9615,-1.9614,-1.9613,-1.9613,-1.9693,-1.9697,-1.97,0,0,0,0,0,0,0,0,0,0,0,0,0,-1.9442,-1.9374,-1.9519,-1.9537,-1.9539,-1.96,-1.9602,-1.9603,-1.9615,-1.9614,-1.9613,-1.9612,-1.9692,-1.9696,-1.97,-1.9748,0,0,-1.9713,-1.9715,0,0,0,0,0,0,0,0,-1.9437,-1.9447,-1.9533,-1.9536,-1.9539,-1.9597,-1.9579,-1.9652,-1.9616,-1.9586,-1.9613,-1.9612,-1.9662,-1.9669,-1.9687,-1.9752,-1.9756,-1.9714,-1.9716,-1.9718,-1.9719,0,0,0,0,0,0,0,-1.9433,-1.9444,-1.9551,-1.9534,-1.9538,-1.954,-1.9549,-1.9593,-1.9629,-1.9589,-1.959,-1.96,-1.9664,-1.9683,-1.9689,-1.9757,-1.9714,-1.9717,-1.972,-1.9722,-1.9864,-1.9865,0,0,0,0,0,0,-1.9425,-1.9439,-1.9549,-1.9554,-1.9484,-1.9543,-1.9553,-1.9579,-1.9629,-1.9636,-1.9601,-1.96,-1.9676,-1.9684,-1.9692,-1.975,-1.9718,-1.9722,-1.9725,-1.9863,-1.9864,-1.9866,0,0,0,0,0,0,-1.9421,-1.9434,-1.9545,-1.9497,-1.9511,-1.9547,-1.9576,-1.9581,-1.96,-1.9638,-1.9644,-1.9613,-1.9675,-1.9686,-1.9734,-1.9753,-1.9724,-1.9728,-1.9861,-1.9863,-1.9865,-1.9868,0,0,0,0,0,0,-1.9417,-1.9433,-1.9453,-1.9497,-1.9514,-1.9588,-1.9577,-1.9584,-1.9608,-1.9608,-1.9652,-1.9658,-1.9675,-1.9728,-1.9738,-1.9758,-1.9731,-1.986,-1.9862,-1.9864,-1.9866,-1.9869,-1.9872,0,0,0,0,0,-1.9412,-1.945,-1.9454,-1.9467,-1.9539,-1.9589,-1.9598,-1.9618,-1.9609,-1.9629,-1.9652,-1.9656,-1.9749,-1.9732,-1.9745,-1.9766,-1.9859,-1.9862,-1.9864,-1.9865,-1.9869,-1.9872,0,0,0,0,0,0,-1.9406,-1.9456,-1.9461,-1.9515,-1.9547,-1.9591,-1.9616,-1.9622,-1.9657,-1.9656,-1.9678,-1.9688,-1.9735,-1.9756,-1.9736,-1.9814,-1.9803,-1.9808,-1.9799,-1.9804,-1.9807,-1.98,-1.9735,0,0,0,0,0,-1.9411,-1.9448,-1.949,-1.9533,-1.9549,-1.958,-1.9602,-1.9615,-1.9649,-1.9663,-1.969,-1.9723,-1.9759,-1.9782,-1.9818,-1.9869,-1.9878,-1.989,-1.9893,-1.9895,-1.9899,-1.9926,-1.9932,-1.9875,-1.9875,-1.9875,0,0,-1.9422,-1.9454,-1.9476,-1.9533,-1.956,-1.9596,-1.9591,-1.9631,-1.9657,-1.9668,-1.9716,-1.9737,-1.9774,-1.9824,-1.9847,-1.9842,-1.9917,-1.9899,-1.9901,-1.9903,-1.993,-1.9935,-1.994,-1.9877,-1.9876,-1.9876,0,0,-1.946,-1.9489,-1.9528,-1.9554,-1.9595,-1.9615,-1.9624,-1.9666,-1.9681,-1.9729,-1.9737,-1.9769,-1.9832,-1.9858,-1.9879,-1.9926,-1.993,-1.9937,-1.9953,-1.9979,-1.9983,-1.9987,-2.0003,-2.0008,-1.9941,-1.9941,-1.9941,0,-1.9468,-1.9525,-1.9546,-1.9585,-1.9609,-1.9621,-1.966,-1.9685,-1.9734,-1.975,-1.9744,-1.9822,-1.9849,-1.9904,-1.9915,-1.9932,-1.9942,-1.9932,-1.9981,-1.9985,-1.9989,-2.0004,-2.001,-1.9941,-1.9941,-1.9941,-1.9941,0,-1.9532,-1.9571,-1.9597,-1.9645,-1.9672,-1.9711,-1.9737,-1.9762,-1.9772,-1.9791,-1.9839,-1.9871,-1.9912,-1.9927,-1.9937,-1.9983,-1.9978,-1.9977,-1.9966,-1.9995,-2.0009,-2.0015,-1.9942,-1.9942,-1.9942,-1.9942,0,0,-1.9569,-1.9629,-1.9638,-1.9659,-1.9704,-1.9734,-1.9772,-1.9814,-1.9834,-1.9867,-1.9899,-1.9951,-1.995,-1.9974,-1.9987,-2.001,-2.0043,-2.0005,-2.0006,-2.001,-2.0094,-2.0094,-2.0101,-2.0046,-2.0047,-2.0048,-2.009,0,-1.9612,-1.9682,-1.9701,-1.976,-1.9795,-1.9806,-1.9839,-1.987,-1.9889,-1.9921,-1.9942,-1.9978,-1.9974,-1.9988,-2.0011,-2.0034,-2.006,-2.0031,-2.0075,-2.0076,-2.0064,-2.0109,-2.011,-2.0148,-2.0096,-2.0097,-2.0098,0,-1.9671,-1.9706,-1.9768,-1.9808,-1.9823,-1.9853,-1.9891,-1.9922,-1.9956,-1.9969,-1.9995,-2.0006,-2.0045,-2.0032,-2.0085,-2.0065,-2.0083,-2.0097,-2.0099,-2.0103,-2.0088,-2.0113,-2.0161,-2.0166,-2.0107,-2.0107,-2.0106,0,-1.9691,-1.9754,-1.9798,-1.9816,-1.9864,-1.9884,-1.9905,-1.9938,-1.9961,-1.9994,-2.0009,-2.0047,-2.0067,-2.0095,-2.0115,-2.0104,-2.0166,-2.0155,-2.0176,-2.0175,-2.0188,-2.0187,-2.0238,-2.0201,-2.0201,-2.0201,-2.0201,0,-1.9736,-1.9773,-1.9807,-1.9835,-1.9876,-1.9898,-1.9938,-1.9959,-1.9988,-2.0018,-2.003,-2.0059,-2.0084,-2.0115,-2.0131,-2.0171,-2.018,-2.019,-2.0194,-2.0189,-2.0187,-2.0201,-2.0199,-2.0203,-2.0202,-2.0202,-2.0202,0,-1.9765,-1.979,-1.9839,-1.988,-1.9891,-1.9919,-1.9953,-1.998,-1.9999,-2.0037,-2.0048,-2.0078,-2.0115,-2.0138,-2.0185,-2.0195,-2.024,-2.0243,-2.0228,-2.023,-2.0249,-2.0246,-2.031,-2.0319,-2.0277,-2.0278,-2.0278,0,-1.9792,-1.982,-1.9864,-1.9886,-1.9907,-1.9942,-1.9965,-1.9987,-2.0011,-2.0051,-2.0072,-2.0111,-2.0142,-2.0201,-2.0226,-2.0262,-2.0265,-2.0285,-2.0271,-2.0264,-2.0264,-2.0262,-2.0264,-2.0287,-2.0288,-2.0288,-2.0288,0,-1.9836,-1.9847,-1.9881,-1.9919,-1.9947,-1.9978,-2.0008,-2.0025,-2.0052,-2.0078,-2.0116,-2.0141,-2.0189,-2.0226,-2.0264,-2.0283,-2.029,-2.0293,-2.0299,-2.0294,-2.0284,-2.0288,-2.0234,-2.0291,-2.0291,-2.029,-2.029,-2.029,-1.9864,-1.989,-1.9924,-1.9961,-1.9987,-2.0015,-2.0041,-2.0064,-2.0096,-2.0138,-2.0148,-2.0188,-2.022,-2.0272,-2.0292,-2.0323,-2.032,-2.033,-2.0332,-2.0334,-2.0333,-2.028,-2.033,-2.033,-2.033,-2.033,-2.033,0,-1.9908,-1.9931,-1.9965,-2.0007,-2.0036,-2.0041,-2.0074,-2.0098,-2.0133,-2.0163,-2.0193,-2.0237,-2.0272,-2.03,-2.0337,-2.0356,-2.036,-2.0365,-2.0363,-2.0367,-2.0335,-2.0325,-2.0361,-2.0361,-2.0361,-2.0361,-2.0361,-2.0361,-1.9935,-1.9978,-1.9992,-2.0047,-2.0069,-2.0109,-2.0128,-2.0153,-2.0177,-2.0225,-2.0255,-2.0273,-2.0302,-2.034,-2.0373,-2.038,-2.0392,-2.0396,-2.0404,-2.0373,-2.037,-2.0366,-2.0357,-2.0399,-2.0399,-2.0434,-2.0434,-2.0434]}]]